Location: Beuvrequen
(50.8014°N, 1.6652°E)
Time: 02:55:12
(UTC+00:00)

deb Chang Zheng 4 - Pass Details

Date: 16 October 2021
Orbit: 595 x 616 km, 98.6° (Epoch: 28 November)

Event Time Altitude Azimuth Distance (km) Brightness Sun altitude
Rises 17:29:44 0° 160° (SSE) 2,826 6.8 -5.7°
Reaches altitude 10° 17:31:53 10° 159° (SSE) 1,929 6.0 -6.0°
Maximum altitude 17:36:04 81° 73° (ENE) 612 3.5 -6.7°
Drops below altitude 10° 17:40:18 10° 347° (NNW) 1,951 6.2 -7.3°
Sets 17:42:29 0° 346° (NNW) 2,861 7.1 -7.7°
